Location: Ajisawe
(8.4333°N, 4.3833°E)
Time: 02:06:08
(UTC+00:00)

Courier 1B Rocket - Pass Details

Date: 29 April 2021
Orbit: 920 x 1202 km, 28.3° (Epoch: 13 May)

Event Time Altitude Azimuth Distance (km) Brightness Sun altitude
Rises 13:26:04 0° 256° (WSW) 3,679 8.3 63.3°
Reaches altitude 10° 13:28:53 10° 261° (W) 2,693 7.9 62.6°
Maximum altitude 13:35:03 46° 334° (NNW) 1,226 6.8 61.1°
Drops below altitude 10° 13:41:00 10° 47° (NE) 2,602 7.2 59.7°
Sets 13:43:41 0° 53° (NE) 3,542 7.7 59.1°
